Kushiro Airport, Japan

7:42 PM JST on May 27, 2017 (GMT +0900)
Kushiro

Weather History for RJCK - June, 2013

Change the Weather History Date:

Tuesday, June 25, 2013

  Actual Average Record
Temperature  
Mean Temperature 56 °F -  
Max Temperature 60 °F 64 °F 78 °F (2001)
Min Temperature 51 °F 54 °F 44 °F (2002)
Degree Days  
Heating Degree Days 10    
Growing Degree Days 6 (Base 50)    
Moisture  
Dew Point 50 °F    
Average Humidity 82    
Maximum Humidity 94    
Minimum Humidity 63    
Precipitation  
Precipitation 0.00 in - - ()
Sea Level Pressure  
Sea Level Pressure 29.84 in    
Wind  
Wind Speed 6 mph ()    
Max Wind Speed 15 mph    
Max Gust Speed -    
Visibility 5.9 miles    
Events      
Averages and records for this station are not official NWS values.
T = Trace of Precipitation, MM = Missing Value Source: Averaged Metar Reports

Daily Weather History Graph

Daily Weather History Graph

Search for Another Location

Airport or City:

Trip Planner

Search our weather history database for the weather conditions in past years. The results will help you decide how hot, cold, wet, or windy it might be!

Date:

Astronomy

Jun. 25, 2013 Rise Set
Actual Time 3:45 AM JST 7:06 PM JST
Civil Twilight 3:09 AM JST 7:41 PM JST
Nautical Twilight 2:23 AM JST 8:27 PM JST
Astronomical Twilight 1:26 AM JST 9:24 PM JST
Moon 8:20 PM JST (6/25) 5:41 AM JST (6/25)
Length of Visible Light 16h 32m
Length of Day
15h 21m
Waning Gibbous, 96% of the Moon is Illuminated
Jun 25
Waning Gibbous
Jun 30
Last Quarter
Jul 8
New
Jul 16
First Quarter
Jul 23
Full

Hourly Weather History & Observations

Time (JST) Temp. Dew Point Humidity Pressure Visibility Wind Dir Wind Speed Gust Speed Precip Events Conditions
7:00 AM 51.8 °F 48.2 °F 88% 29.89 in 6.2 mi NE 4.6 mph - N/A   Mostly Cloudy
8:00 AM 53.6 °F 50.0 °F 88% 29.89 in 6.2 mi Variable 2.3 mph - N/A   Mostly Cloudy
9:00 AM 57.2 °F 50.0 °F 77% 29.89 in 6.2 mi Variable 3.5 mph - N/A   Mostly Cloudy
10:00 AM 59.0 °F 48.2 °F 67% 29.89 in 6.2 mi South 5.8 mph - N/A   Mostly Cloudy
11:00 AM 57.2 °F 48.2 °F 72% 29.86 in 6.2 mi SSE 4.6 mph - N/A   Mostly Cloudy
12:00 PM 59.0 °F 46.4 °F 63% 29.86 in 6.2 mi South 9.2 mph - N/A   Mostly Cloudy
1:00 PM 60.8 °F 48.2 °F 63% 29.83 in 6.2 mi South 10.4 mph - N/A   Scattered Clouds
2:00 PM 60.8 °F 50.0 °F 68% 29.83 in 6.2 mi SSW 10.4 mph - N/A   Scattered Clouds
3:00 PM 57.2 °F 50.0 °F 77% 29.83 in 6.2 mi SSW 15.0 mph - N/A   Partly Cloudy
4:00 PM 59.0 °F 51.8 °F 77% 29.80 in 6.2 mi SSW 13.8 mph - N/A   Partly Cloudy
4:50 PM 57.2 °F 51.8 °F 82% 29.80 in 6.2 mi South 10.4 mph - N/A   Mostly Cloudy
5:00 PM 55.4 °F 51.8 °F 88% 29.80 in 6.2 mi SSW 11.5 mph - N/A   Mostly Cloudy
5:21 PM 55.4 °F 51.8 °F 88% 29.83 in 6.2 mi SSW 11.5 mph - N/A   Mostly Cloudy
6:00 PM 55.4 °F 51.8 °F 88% 29.83 in 6.2 mi SSW 8.1 mph - N/A   Mostly Cloudy
6:34 PM 55.4 °F 51.8 °F 88% 29.83 in 6.2 mi SSW 10.4 mph - N/A   Mostly Cloudy
6:50 PM 53.6 °F 51.8 °F 94% 29.80 in 6.2 mi SSW 5.8 mph - N/A   Mostly Cloudy
7:00 PM 53.6 °F 51.8 °F 94% 29.80 in - South 8.1 mph - N/A   Mostly Cloudy
7:45 PM 53.6 °F 51.8 °F 94% 29.83 in - SSW 4.6 mph - N/A   Mostly Cloudy
8:00 PM 53.6 °F 51.8 °F 94% 29.83 in 1.9 mi SSW 2.3 mph - N/A   Mostly Cloudy